• In Uzbekistan
  • List of Countries
  • For 7 days
  • Water Temperature
  • Satellite Maps
  • Weather Map
  • Weather Widgets
  • user-avatar
    Login

    Hourly Weather Ganja

    Today, 26 April, Wednesday

    Time Temperature Precipitation Wind Pressure Humidity
    00:00 +9°C° 0 mm 1 mps 734 mmHg 62%
    01:00 +7°C° 0 mm 2 mps 734 mmHg 66%
    02:00 +6°C° 0 mm 2 mps 734 mmHg 71%
    03:00 +7°C° 0 mm 1 mps 734 mmHg 68%
    04:00 +7°C° 0 mm 1 mps 734 mmHg 68%
    05:00 +6°C° 0 mm 2 mps 735 mmHg 68%
    06:00 +7°C° 0 mm 2 mps 735 mmHg 69%
    07:00 +8°C° 0 mm 3 mps 735 mmHg 65%
    08:00 +9°C° 0 mm 3 mps 735 mmHg 62%
    09:00 +10°C° 0 mm 4 mps 736 mmHg 59%
    10:00 +11°C° 0 mm 4 mps 735 mmHg 55%
    11:00 +12°C° 0 mm 5 mps 735 mmHg 52%
    12:00 +13°C° 0 mm 5 mps 735 mmHg 48%
    13:00 +14°C° 0 mm 5 mps 735 mmHg 47%
    14:00 +15°C° 0 mm 5 mps 734 mmHg 45%
    15:00 +15°C° 0 mm 5 mps 734 mmHg 43%
    16:00 +14°C° 0 mm 5 mps 734 mmHg 47%
    17:00 +13°C° 0 mm 4 mps 734 mmHg 50%
    18:00 +13°C° 0 mm 4 mps 734 mmHg 54%
    19:00 +11°C° 0 mm 3 mps 735 mmHg 59%
    20:00 +9°C° 0 mm 3 mps 735 mmHg 65%
    21:00 +8°C° 0 mm 2 mps 736 mmHg 70%
    22:00 +7°C° 0 mm 2 mps 736 mmHg 72%
    23:00 +7°C° 0 mm 2 mps 736 mmHg 75%

    Tomorrow, 27 April, Thursday

    Time Temperature Precipitation Wind Pressure Humidity
    00:00 +6°C° 0 mm 2 mps 736 mmHg 77%
    01:00 +7°C° 0 mm 1 mps 736 mmHg 78%
    02:00 +6°C° 0 mm 1 mps 735 mmHg 80%
    03:00 +5°C° 0 mm 1 mps 735 mmHg 81%
    04:00 +6°C° 0 mm 1 mps 735 mmHg 78%
    05:00 +6°C° 0 mm 0 mps 736 mmHg 76%
    06:00 +7°C° 0 mm 0 mps 736 mmHg 73%
    07:00 +9°C° 0 mm 1 mps 735 mmHg 64%
    08:00 +10°C° 0 mm 2 mps 735 mmHg 56%
    09:00 +13°C° 0 mm 2 mps 735 mmHg 47%
    10:00 +13°C° 0 mm 3 mps 734 mmHg 45%
    11:00 +15°C° 0 mm 4 mps 734 mmHg 43%
    12:00 +17°C° 0 mm 4 mps 734 mmHg 41%
    13:00 +16°C° 0 mm 5 mps 733 mmHg 43%
    14:00 +17°C° 0 mm 5 mps 733 mmHg 45%
    15:00 +17°C° 0 mm 5 mps 732 mmHg 46%
    16:00 +16°C° 0 mm 5 mps 733 mmHg 51%
    17:00 +15°C° 0 mm 4 mps 733 mmHg 55%
    18:00 +14°C° 0 mm 4 mps 733 mmHg 59%
    19:00 +13°C° 0 mm 3 mps 733 mmHg 64%
    20:00 +11°C° 0 mm 3 mps 734 mmHg 69%
    21:00 +9°C° 0 mm 2 mps 734 mmHg 74%
    22:00 +9°C° 0 mm 2 mps 734 mmHg 75%
    23:00 +8°C° 0 mm 2 mps 734 mmHg 76%

    Day after tomorrow, 28 April, Friday

    Time Temperature Precipitation Wind Pressure Humidity
    00:00 +8°C° 0 mm 2 mps 734 mmHg 77%
    01:00 +8°C° 0 mm 1 mps 734 mmHg 77%
    02:00 +8°C° 0 mm 1 mps 734 mmHg 78%
    03:00 +7°C° 0 mm 0 mps 733 mmHg 78%
    04:00 +7°C° 0 mm 0 mps 733 mmHg 76%
    05:00 +8°C° 0 mm 0 mps 733 mmHg 75%
    06:00 +9°C° 0 mm 0 mps 733 mmHg 73%
    07:00 +12°C° 0 mm 1 mps 733 mmHg 67%
    08:00 +13°C° 0 mm 1 mps 733 mmHg 61%
    09:00 +15°C° 0 mm 1 mps 732 mmHg 55%
    10:00 +16°C° 0 mm 2 mps 732 mmHg 53%
    11:00 +17°C° 0 mm 2 mps 731 mmHg 51%
    12:00 +18°C° 0 mm 2 mps 731 mmHg 49%
    13:00 +18°C° 0 mm 2 mps 730 mmHg 49%
    14:00 +19°C° 0 mm 3 mps 730 mmHg 49%
    15:00 +19°C° 0 mm 3 mps 729 mmHg 49%
    16:00 +19°C° 0 mm 2 mps 729 mmHg 52%
    17:00 +18°C° 0 mm 2 mps 729 mmHg 56%
    18:00 +17°C° 0 mm 2 mps 729 mmHg 60%
    19:00 +16°C° 0 mm 2 mps 729 mmHg 64%
    20:00 +14°C° 0 mm 1 mps 730 mmHg 69%
    21:00 +12°C° 0 mm 1 mps 730 mmHg 74%
    22:00 +11°C° 0 mm 1 mps 730 mmHg 75%
    23:00 +11°C° 0 mm 1 mps 729 mmHg 76%

    29 April, Saturday

    Time Temperature Precipitation Wind Pressure Humidity
    00:00 +10°C° 0 mm 1 mps 729 mmHg 76%
    01:00 +10°C° 0 mm 1 mps 729 mmHg 78%
    02:00 +9°C° 0 mm 0 mps 728 mmHg 79%
    03:00 +8°C° 0 mm 0 mps 728 mmHg 81%
    04:00 +9°C° 0 mm 0 mps 728 mmHg 78%
    05:00 +11°C° 0 mm 1 mps 728 mmHg 76%
    06:00 +12°C° 0 mm 1 mps 728 mmHg 74%
    07:00 +14°C° 0 mm 1 mps 728 mmHg 67%
    08:00 +16°C° 0 mm 1 mps 728 mmHg 61%
    09:00 +18°C° 0 mm 1 mps 728 mmHg 55%
    10:00 +19°C° 0 mm 1 mps 727 mmHg 52%
    11:00 +20°C° 0 mm 1 mps 727 mmHg 48%
    12:00 +21°C° 0 mm 2 mps 727 mmHg 45%
    13:00 +21°C° 0.1 mm 2 mps 726 mmHg 45%
    14:00 +21°C° 0.1 mm 2 mps 726 mmHg 45%
    15:00 +23°C° 0.1 mm 2 mps 725 mmHg 45%
    16:00 +21°C° 0.2 mm 2 mps 726 mmHg 49%
    17:00 +21°C° 0.2 mm 1 mps 726 mmHg 53%
    18:00 +20°C° 0.2 mm 1 mps 726 mmHg 57%
    19:00 +19°C° 0.3 mm 1 mps 726 mmHg 60%
    20:00 +16°C° 0.3 mm 1 mps 726 mmHg 63%
    21:00 +15°C° 0.3 mm 1 mps 727 mmHg 66%
    22:00 +14°C° 0 mm 1 mps 727 mmHg 67%
    23:00 +14°C° 0 mm 1 mps 726 mmHg 68%

    30 April, Sunday

    Time Temperature Precipitation Wind Pressure Humidity
    00:00 +13°C° 0 mm 1 mps 726 mmHg 70%
    01:00 +12°C° 0 mm 1 mps 726 mmHg 71%
    02:00 +12°C° 0 mm 1 mps 726 mmHg 73%
    03:00 +11°C° 0 mm 1 mps 725 mmHg 74%
    04:00 +12°C° 0 mm 1 mps 726 mmHg 72%
    05:00 +13°C° 0 mm 1 mps 726 mmHg 69%
    06:00 +14°C° 0 mm 2 mps 726 mmHg 67%
    07:00 +16°C° 0 mm 2 mps 726 mmHg 60%
    08:00 +18°C° 0 mm 2 mps 726 mmHg 54%
    09:00 +20°C° 0 mm 2 mps 726 mmHg 47%
    10:00 +21°C° 0.1 mm 2 mps 726 mmHg 45%
    11:00 +24°C° 0.1 mm 2 mps 726 mmHg 43%
    12:00 +25°C° 0.1 mm 1 mps 725 mmHg 41%
    13:00 +25°C° 0.3 mm 1 mps 725 mmHg 41%
    14:00 +25°C° 0.3 mm 1 mps 725 mmHg 41%
    15:00 +26°C° 0.3 mm 1 mps 724 mmHg 41%
    16:00 +25°C° 0.2 mm 1 mps 725 mmHg 45%
    17:00 +24°C° 0.2 mm 1 mps 725 mmHg 49%
    18:00 +23°C° 0.2 mm 1 mps 725 mmHg 53%
    19:00 +21°C° 0.1 mm 1 mps 725 mmHg 55%
    20:00 +19°C° 0.1 mm 1 mps 725 mmHg 57%
    21:00 +16°C° 0.1 mm 1 mps 725 mmHg 60%
    22:00 +15°C° 0 mm 1 mps 725 mmHg 60%
    23:00 +15°C° 0 mm 1 mps 725 mmHg 60%

    1 May, Monday

    Time Temperature Precipitation Wind Pressure Humidity
    00:00 +14°C° 0 mm 1 mps 725 mmHg 61%
    01:00 +14°C° 0 mm 1 mps 725 mmHg 61%
    02:00 +13°C° 0 mm 1 mps 725 mmHg 61%
    03:00 +13°C° 0 mm 1 mps 725 mmHg 61%
    04:00 +14°C° 0 mm 1 mps 725 mmHg 60%
    05:00 +15°C° 0 mm 1 mps 726 mmHg 59%
    06:00 +15°C° 0 mm 2 mps 726 mmHg 58%
    07:00 +18°C° 0 mm 2 mps 726 mmHg 51%
    08:00 +20°C° 0 mm 2 mps 726 mmHg 44%
    09:00 +23°C° 0 mm 2 mps 726 mmHg 38%
    10:00 +24°C° 0 mm 2 mps 726 mmHg 37%
    11:00 +25°C° 0 mm 1 mps 725 mmHg 35%
    12:00 +26°C° 0 mm 1 mps 725 mmHg 34%
    13:00 +27°C° 0 mm 1 mps 725 mmHg 35%
    14:00 +27°C° 0 mm 2 mps 725 mmHg 35%
    15:00 +27°C° 0 mm 2 mps 725 mmHg 36%
    16:00 +26°C° 0 mm 2 mps 725 mmHg 40%
    17:00 +25°C° 0 mm 2 mps 725 mmHg 44%
    18:00 +25°C° 0 mm 2 mps 725 mmHg 49%
    19:00 +21°C° 0 mm 2 mps 725 mmHg 52%
    20:00 +19°C° 0 mm 2 mps 726 mmHg 56%
    21:00 +17°C° 0 mm 2 mps 726 mmHg 59%
    22:00 +18°C° 0 mm 1 mps 726 mmHg 60%
    23:00 +16°C° 0 mm 1 mps 726 mmHg 61%
    Show more